Mercury, NV

8:50 PM PST on February 11, 2016 (GMT -0800)
Mercury

Weather History for KDRA - October, 2012

Change the Weather History Date:

Friday, October 5, 2012

  Actual Average Record
Temperature  
Mean Temperature 71 °F 68 °F  
Max Temperature 87 °F 82 °F 97 °F (1980)
Min Temperature 55 °F 53 °F 36 °F (2009)
Degree Days  
Heating Degree Days 0    
Cooling Degree Days 6    
Growing Degree Days 21 (Base 50)    
Moisture  
Dew Point 27 °F    
Average Humidity 19    
Maximum Humidity 33    
Minimum Humidity 6    
Precipitation  
Precipitation 0.00 in 0.01 in 0.46 in (2015)
Month to date precipitation 0.05  
Year to date precipitation 4.62  
Sea Level Pressure  
Sea Level Pressure 29.90 in    
Wind  
Wind Speed 3 mph (NNW)    
Max Wind Speed 13 mph    
Max Gust Speed -    
Visibility 10 miles    
Events      
T = Trace of Precipitation, MM = Missing Value Source: NWS Daily Summary

Daily Weather History Graph

Daily Weather History Graph

Search for Another Location

Airport or City:

Trip Planner

Search our weather history database for the weather conditions in past years. The results will help you decide how hot, cold, wet, or windy it might be!

Date:

Astronomy

Oct. 05, 2012 Rise Set
Actual Time 6:43 AM PDT 6:20 PM PDT
Civil Twilight 6:17 AM PDT 6:46 PM PDT
Nautical Twilight 5:47 AM PDT 7:16 PM PDT
Astronomical Twilight 5:17 AM PDT 7:46 PM PDT
Moon 9:55 PM PDT (10/5) 11:46 AM PDT (10/5)
Length of Visible Light 12h 29m
Length of Day
11h 37m
Waning Gibbous, 73% of the Moon is Illuminated
Oct 5
Waning Gibbous
Oct 8
Last Quarter
Oct 15
New
Oct 21
First Quarter
Oct 29
Full

Hourly Weather History & Observations

Time (PDT) Temp. Dew Point Humidity Pressure Visibility Wind Dir Wind Speed Gust Speed Precip Events Conditions
12:52 AM 66.0 °F 27.0 °F 23% 29.91 in 10.0 mi NNE 6.9 mph - N/A   Clear
1:52 AM 64.9 °F 27.0 °F 24% 29.91 in 10.0 mi Calm Calm - N/A   Clear
2:52 AM 63.0 °F 27.0 °F 26% 29.91 in 10.0 mi Calm Calm - N/A   Clear
3:52 AM 64.0 °F 28.9 °F 27% 29.91 in 10.0 mi Variable 3.5 mph - N/A   Clear
4:52 AM 61.0 °F 28.9 °F 30% 29.92 in 10.0 mi Calm Calm - N/A   Clear
5:52 AM 57.9 °F 28.9 °F 33% 29.94 in 10.0 mi Calm Calm - N/A   Clear
6:52 AM 57.9 °F 28.9 °F 33% 29.96 in 10.0 mi Calm Calm - N/A   Clear
7:52 AM 61.0 °F 28.9 °F 30% 29.97 in 10.0 mi Calm Calm - N/A   Clear
8:52 AM 69.1 °F 30.0 °F 23% 29.97 in 10.0 mi Calm Calm - N/A   Clear
9:52 AM 75.0 °F 30.9 °F 20% 29.96 in 10.0 mi Calm Calm - N/A   Clear
10:52 AM 79.0 °F 30.0 °F 17% 29.95 in 10.0 mi Variable 4.6 mph - N/A   Clear
11:52 AM 84.0 °F 26.1 °F 12% 29.94 in 10.0 mi NE 5.8 mph - N/A   Clear
12:52 PM 84.0 °F 26.1 °F 12% 29.91 in 10.0 mi Variable 4.6 mph - N/A   Clear
1:52 PM 86.0 °F 27.0 °F 12% 29.88 in 10.0 mi SW 6.9 mph - N/A   Clear
2:52 PM 84.9 °F 27.0 °F 12% 29.87 in 10.0 mi SW 12.7 mph - N/A   Clear
3:52 PM 82.9 °F 27.0 °F 13% 29.86 in 10.0 mi WSW 9.2 mph - N/A   Clear
4:52 PM 82.9 °F 26.1 °F 13% 29.86 in 10.0 mi SW 5.8 mph - N/A   Clear
5:52 PM 81.0 °F 26.1 °F 13% 29.86 in 10.0 mi SW 6.9 mph - N/A   Clear
6:52 PM 77.0 °F 26.1 °F 15% 29.87 in 10.0 mi NNW 3.5 mph - N/A   Clear
7:52 PM 73.9 °F 25.0 °F 16% 29.87 in 10.0 mi NNE 4.6 mph - N/A   Clear
8:52 PM 71.1 °F 26.1 °F 19% 29.86 in 10.0 mi NE 3.5 mph - N/A   Clear
9:52 PM 68.0 °F 26.1 °F 21% 29.86 in 10.0 mi North 3.5 mph - N/A   Clear
10:52 PM 66.9 °F 26.1 °F 21% 29.86 in 10.0 mi NE 4.6 mph - N/A   Clear
11:52 PM 64.0 °F 25.0 °F 23% 29.86 in 10.0 mi Calm Calm - N/A   Clear